DAL8485 KPHX-KBNA

Flight info

Callsign DAL8485
Flight time N/A
Altitude 39000
Route BROAK1 MAXXO IRW LOPPY CHSNE3
Aircraft B772/H-SDE2E3FGHIJ5LORVWXY/LB1D1

Departure

Time 2026-05-05 20:36
Airport Phoenix Sky Harbor International Airport (KPHX)

Arrival

Time N/A
Airport Nashville International Airport (KBNA)
Time Latitude Longitude Altitude Speed Heading
2026-05-05 20:22 33.43643 -112.00925 1138 ft 0 kts 90°
2026-05-05 20:23 33.43643 -112.00933 1138 ft 2 kts 101°
2026-05-05 20:24 33.43649 -112.00950 1138 ft 2 kts 130°
2026-05-05 20:24 33.43660 -112.00960 1138 ft 2 kts 155°
2026-05-05 20:24 33.43675 -112.00965 1137 ft 2 kts 181°
2026-05-05 20:24 33.43690 -112.00964 1137 ft 2 kts 183°
2026-05-05 20:25 33.43705 -112.00964 1137 ft 2 kts 180°
2026-05-05 20:25 33.43720 -112.00964 1137 ft 2 kts 180°
2026-05-05 20:25 33.43735 -112.00964 1137 ft 2 kts 180°
2026-05-05 20:25 33.43750 -112.00964 1137 ft 2 kts 180°
2026-05-05 20:26 33.43765 -112.00964 1138 ft 2 kts 180°
2026-05-05 20:26 33.43780 -112.00963 1137 ft 2 kts 180°
2026-05-05 20:26 33.43795 -112.00963 1138 ft 2 kts 180°
2026-05-05 20:26 33.43810 -112.00963 1138 ft 2 kts 180°
2026-05-05 20:27 33.43825 -112.00963 1138 ft 2 kts 180°
2026-05-05 20:27 33.43840 -112.00963 1138 ft 2 kts 180°
2026-05-05 20:27 33.43855 -112.00962 1138 ft 2 kts 180°
2026-05-05 20:27 33.43870 -112.00962 1138 ft 2 kts 180°
2026-05-05 20:28 33.43882 -112.00962 1138 ft 0 kts 180°
2026-05-05 20:31 33.43881 -112.00962 1138 ft 1 kts 180°
2026-05-05 20:31 33.43872 -112.00949 1138 ft 3 kts 89°
2026-05-05 20:32 33.43894 -112.00858 1138 ft 17 kts 82°
2026-05-05 20:32 33.43901 -112.00683 1141 ft 19 kts 90°
2026-05-05 20:32 33.43894 -112.00509 1141 ft 22 kts 111°
2026-05-05 20:32 33.43762 -112.00470 1140 ft 21 kts 179°
2026-05-05 20:33 33.43607 -112.00469 1139 ft 24 kts 180°
2026-05-05 20:33 33.43425 -112.00466 1137 ft 27 kts 179°
2026-05-05 20:33 33.43274 -112.00470 1137 ft 16 kts 182°
2026-05-05 20:33 33.43218 -112.00368 1135 ft 18 kts 95°
2026-05-05 20:34 33.43217 -112.00200 1135 ft 21 kts 89°
2026-05-05 20:34 33.43219 -112.00005 1135 ft 25 kts 89°
2026-05-05 20:34 33.43218 -111.99789 1134 ft 24 kts 93°
2026-05-05 20:34 33.43213 -111.99619 1134 ft 20 kts 91°
2026-05-05 20:35 33.43211 -111.99438 1135 ft 18 kts 88°
2026-05-05 20:35 33.43182 -111.99336 1137 ft 14 kts 166°
2026-05-05 20:35 33.43105 -111.99348 1137 ft 2 kts 205°
2026-05-05 20:35 33.43100 -111.99365 1137 ft 0 kts 266°
2026-05-05 20:36 33.43101 -111.99455 1135 ft 41 kts 272°
2026-05-05 20:36 33.43103 -112.00188 1135 ft 131 kts 269°
2026-05-05 20:36 33.43105 -112.01405 1695 ft 157 kts 266°
2026-05-05 20:36 33.43066 -112.02711 2484 ft 160 kts 265°
2026-05-05 20:37 33.43010 -112.04076 2950 ft 174 kts 265°
2026-05-05 20:37 33.42872 -112.05554 3476 ft 182 kts 255°
2026-05-05 20:37 33.42506 -112.06996 4081 ft 186 kts 252°
2026-05-05 20:37 33.42108 -112.08474 4705 ft 188 kts 252°
2026-05-05 20:38 33.41707 -112.09956 5301 ft 191 kts 251°
2026-05-05 20:38 33.41294 -112.11481 5902 ft 194 kts 251°
2026-05-05 20:38 33.40867 -112.13058 6275 ft 210 kts 251°
2026-05-05 20:38 33.40391 -112.14750 6731 ft 219 kts 246°
2026-05-05 20:39 33.39565 -112.16267 7317 ft 220 kts 227°
2026-05-05 20:39 33.38338 -112.17358 7875 ft 226 kts 207°
2026-05-05 20:39 33.36768 -112.17911 8261 ft 247 kts 186°
2026-05-05 20:39 33.34994 -112.17701 8702 ft 268 kts 167°
2026-05-05 20:40 33.33164 -112.17018 9271 ft 282 kts 164°
2026-05-05 20:40 33.31300 -112.16311 10160 ft 283 kts 165°
2026-05-05 20:40 33.29456 -112.15397 10734 ft 299 kts 153°
2026-05-05 20:40 33.27681 -112.13917 11191 ft 318 kts 143°
2026-05-05 20:41 33.26058 -112.12035 11655 ft 337 kts 134°
2026-05-05 20:41 33.24640 -112.09730 12093 ft 357 kts 124°
2026-05-05 20:41 33.23519 -112.07015 12497 ft 377 kts 114°
2026-05-05 20:41 33.22801 -112.03915 12907 ft 396 kts 102°
2026-05-05 20:42 33.22623 -112.00603 13571 ft 407 kts 90°
2026-05-05 20:42 33.23002 -111.97221 14358 ft 414 kts 79°
2026-05-05 20:42 33.23893 -111.93925 15008 ft 424 kts 68°
2026-05-05 20:42 33.25284 -111.90823 15646 ft 432 kts 57°
2026-05-05 20:43 33.27032 -111.87869 16320 ft 438 kts 55°
2026-05-05 20:43 33.28719 -111.84858 17008 ft 444 kts 57°
2026-05-05 20:43 33.30360 -111.81717 17693 ft 449 kts 59°
2026-05-05 20:43 33.31970 -111.78463 18333 ft 455 kts 60°
2026-05-05 20:44 33.33528 -111.75191 18898 ft 463 kts 61°
2026-05-05 20:44 33.35107 -111.71785 19374 ft 473 kts 62°
2026-05-05 20:44 33.36685 -111.68313 19966 ft 479 kts 62°
2026-05-05 20:44 33.38262 -111.64796 20571 ft 484 kts 62°
2026-05-05 20:45 33.41481 -111.57519 21522 ft 502 kts 63°
2026-05-05 20:45 33.42987 -111.53758 22088 ft 506 kts 70°
2026-05-05 20:45 33.44278 -111.49816 22571 ft 513 kts 71°
2026-05-05 20:46 33.45555 -111.45793 23100 ft 520 kts 71°
2026-05-05 20:46 33.46841 -111.41728 23699 ft 523 kts 71°
2026-05-05 20:46 33.48136 -111.37626 24113 ft 532 kts 71°
2026-05-05 20:46 33.49437 -111.33498 24454 ft 541 kts 72°
2026-05-05 20:47 33.50766 -111.29273 24912 ft 546 kts 73°
2026-05-05 20:47 33.52117 -111.24973 25350 ft 552 kts 72°
2026-05-05 20:47 33.53474 -111.20636 25711 ft 559 kts 73°
2026-05-05 20:47 33.54737 -111.16228 26090 ft 565 kts 75°
2026-05-05 20:48 33.55973 -111.11781 26518 ft 570 kts 76°
2026-05-05 20:48 33.57221 -111.07287 26999 ft 573 kts 76°
2026-05-05 20:48 33.58488 -111.02725 27401 ft 579 kts 76°
2026-05-05 20:48 33.59755 -110.98167 27786 ft 584 kts 76°
2026-05-05 20:49 33.61044 -110.93525 28181 ft 590 kts 76°
2026-05-05 20:49 33.62347 -110.88832 28599 ft 594 kts 76°
2026-05-05 20:49 33.63648 -110.84142 28999 ft 599 kts 76°
2026-05-05 20:49 33.64977 -110.79345 29413 ft 603 kts 77°
2026-05-05 20:50 33.66297 -110.74576 29849 ft 607 kts 76°
2026-05-05 20:50 33.67629 -110.69760 30344 ft 608 kts 76°
2026-05-05 20:50 33.68970 -110.64900 30988 ft 606 kts 76°
2026-05-05 20:50 33.70294 -110.60102 31629 ft 604 kts 76°
2026-05-05 20:51 33.71620 -110.55287 32208 ft 603 kts 76°
2026-05-05 20:51 33.72927 -110.50530 32776 ft 602 kts 76°
2026-05-05 20:51 33.74241 -110.45739 33367 ft 601 kts 76°
2026-05-05 20:51 33.75542 -110.40988 33893 ft 602 kts 76°
2026-05-05 20:52 33.76843 -110.36227 34516 ft 600 kts 75°
2026-05-05 20:52 33.78130 -110.31519 35274 ft 594 kts 76°
2026-05-05 20:52 33.79404 -110.26850 36003 ft 588 kts 76°
2026-05-05 20:52 33.80667 -110.22214 36629 ft 584 kts 76°
2026-05-05 20:53 33.81924 -110.17589 37038 ft 583 kts 76°
2026-05-05 20:53 33.83180 -110.12959 37343 ft 584 kts 76°
2026-05-05 20:53 33.84446 -110.08283 37643 ft 585 kts 76°
2026-05-05 20:53 33.85693 -110.03671 38049 ft 583 kts 76°
2026-05-05 20:54 33.86925 -109.99111 38514 ft 579 kts 75°
2026-05-05 20:54 33.88173 -109.94485 38931 ft 576 kts 76°
2026-05-05 20:54 33.89397 -109.89934 39064 ft 578 kts 75°
2026-05-05 20:54 33.90626 -109.85358 39071 ft 579 kts 76°
2026-05-05 20:55 33.93087 -109.76175 39087 ft 576 kts 76°
2026-05-05 20:55 33.95536 -109.67003 39088 ft 580 kts 75°
2026-05-05 20:56 33.97992 -109.57777 39085 ft 579 kts 76°
2026-05-05 20:56 34.00434 -109.48570 39094 ft 580 kts 75°
2026-05-05 20:57 34.02882 -109.39311 39121 ft 583 kts 76°
2026-05-05 20:57 34.05344 -109.29972 39106 ft 582 kts 76°
2026-05-05 20:58 34.07770 -109.20737 39104 ft 583 kts 77°
2026-05-05 20:58 34.10201 -109.11453 39099 ft 584 kts 77°
2026-05-05 20:59 34.12649 -109.02067 39091 ft 584 kts 77°
2026-05-05 20:59 34.15069 -108.92763 39090 ft 585 kts 77°
2026-05-05 21:00 34.17501 -108.83374 39099 ft 586 kts 77°
2026-05-05 21:00 34.19922 -108.73999 39107 ft 587 kts 77°
2026-05-05 21:01 34.22334 -108.64625 39095 ft 587 kts 77°
2026-05-05 21:01 34.24743 -108.55230 39094 ft 588 kts 77°
2026-05-05 21:02 34.27152 -108.45799 39097 ft 588 kts 77°